This is the latest recevied weather packets stored in our database for station/object K1RFS. If no packets are shown the sender has not sent any weather packets the latest 10 day(s).
| Time | Temp. | Humidity | Pressure | Rain* | Wind** | Luminosity | Snow |
|---|---|---|---|---|---|---|---|
| 1787429901 | 36.67° C | 26% | 1006.4 hPa | 0 mm | - | 631 W/m² | - |
| 1787429601 | 36.11° C | 27% | 1006.4 hPa | 0 mm | - | 633 W/m² | - |
| 1787429297 | 35.56° C | 27% | 1006.6 hPa | 0 mm | - | 660 W/m² | - |
| 1787428993 | 35.56° C | 29% | 1006.6 hPa | 0 mm | - | 526 W/m² | - |
| 1787428693 | 35.56° C | 28% | 1006.6 hPa | 0 mm | - | 671 W/m² | - |
| 1787428388 | 35° C | 28% | 1006.8 hPa | 0 mm | - | 657 W/m² | - |
| 1787428083 | 34.44° C | 29% | 1007.1 hPa | 0 mm | - | 642 W/m² | - |
| 1787427773 | 34.44° C | 29% | 1006.9 hPa | 0 mm | - | 635 W/m² | - |
| 1787427469 | 33.89° C | 29% | 1007.2 hPa | 0 mm | - | 639 W/m² | - |
| 1787427164 | 33.89° C | 29% | 1007.1 hPa | 0 mm | - | 637 W/m² | - |
| 1787426860 | 33.89° C | 30% | 1007.1 hPa | 0 mm | - | 637 W/m² | - |
| 1787426555 | 33.89° C | 31% | 1007.4 hPa | 0 mm | - | 632 W/m² | - |
| 1787426252 | 33.33° C | 31% | 1007.3 hPa | 0 mm | - | 631 W/m² | - |
| 1787425948 | 32.78° C | 32% | 1007.2 hPa | 0 mm | - | 635 W/m² | - |
| 1787425644 | 33.33° C | 30% | 1007.6 hPa | 0 mm | - | 172 W/m² | - |
| 1787425340 | 32.78° C | 31% | 1007.6 hPa | 0 mm | - | 636 W/m² | - |
| 1787425039 | 32.78° C | 32% | 1007.8 hPa | 0 mm | - | 627 W/m² | - |
| 1787424739 | 32.78° C | 32% | 1007.8 hPa | 0 mm | - | 623 W/m² | - |
| 1787424434 | 32.22° C | 33% | 1007.8 hPa | 0 mm | - | 618 W/m² | - |
| 1787424129 | 32.78° C | 33% | 1008 hPa | 0 mm | - | 610 W/m² | - |
| 1787423825 | 32.78° C | 32% | 1007.9 hPa | 0 mm | - | 607 W/m² | - |
| 1787423522 | 31.67° C | 34% | 1008.1 hPa | 0 mm | - | 603 W/m² | - |
| 1787423217 | 31.67° C | 35% | 1008.2 hPa | 0 mm | - | 598 W/m² | - |
| 1787422913 | 31.11° C | 35% | 1008.5 hPa | 0 mm | - | 593 W/m² | - |
| 1787422608 | 30.56° C | 35% | 1008.5 hPa | 0 mm | - | 587 W/m² | - |
* Rain latest hour (hover to see other rain measurements)
** Current wind speed in m/s (hover to see current wind gust speed)